Regional Weather Roundup
Issued by NWS Cleveland, OH

Home | Current Version | Previous Version | Text Only | Print | Product List | Glossary Off
Versions: 1 2 3 4 5 6 7 8 9 10 11 12 13 14 15 16 17 18 19 20 21 22 23 24 25 26 27 28 29 30 31 32 33 34 35 36 37 38 39 40 41 42 43 44 45 46 47 48 49 50

000
ASUS41 KCLE 261100
RWRCLE
OHIO REGIONAL WEATHER ROUNDUP
NATIONAL WEATHER SERVICE WILMINGTON, OH
700 AM EDT FRI AUG 26 2016

NOTE: "FAIR" INDICATES FEW OR NO CLOUDS BELOW 12,000 FEET WITH NO
SIGNIFICANT WEATHER AND/OR OBSTRUCTIONS TO VISIBILITY.

OHZ001>008-015>018-024>027-034-035-043-044-261200-
   NORTHWEST OHIO

CITY           SKY/WX    TMP DP  RH WIND       PRES   REMARKS
DEFIANCE       FAIR      65  63  93 CALM      30.14R
FINDLAY        FAIR      66  61  84 CALM      30.12R
TOLEDO EXPRESS FAIR      63  63 100 CALM      30.12R
TOLEDO EXEC    FAIR      66  62  87 W3        30.13R
LIMA           FOG       66  66 100 CALM      30.14R VSB 3/4
$$

OHZ009>014-019>023-028>033-038-089-261200-
   NORTHEAST OHIO

CITY           SKY/WX    TMP DP  RH WIND       PRES   REMARKS
CLE-HOPKINS    FAIR      71  64  78 W5        30.13R
CLE-LAKEFRONT  FAIR      74  66  76 NW10      30.09R
CUY CO. ARPT   PTCLDY    73  68  83 NW7       30.11
LORAIN-ELYRIA  FAIR      66  63  90 N3        30.12R
ASHTABULA      FAIR      68  68 100 CALM      30.11R FOG
AKRON-CANTON   FAIR      69  66  90 CALM      30.12R
WOOSTER        NOT AVBL
MANSFIELD      MOCLDY    70  69  97 NW3       30.14R
YOUNGSTOWN     MOCLDY    69  68  96 CALM      30.12R FOG
$$

OHZ042-051>053-060>062-070>072-077>081-261200-
  SOUTHWEST OHIO

CITY           SKY/WX    TMP DP  RH WIND       PRES   REMARKS
CINC-COVINGTON FAIR      71  71 100 CALM      30.12R
CINC-LUNKEN    FAIR      70  70 100 CALM      30.12R FOG
HAMILTON       FAIR      69  68  96 CALM      30.12R FOG
DAYTON         NOT AVBL
WRIGHT-PAT AFB PTCLDY    72  72 100 SW2       30.12R FOG
DAYTON GENERAL FAIR      72  70  93 CALM      30.12R FOG
WILMINGTON     FOG       69  69 100 CALM      30.13R VSB 1/2
$$

OHZ036-037-039>041-045>050-054>059-063>069-073>076-082>088-261200-
  CENTRAL AND SOUTHEAST OHIO

CITY           SKY/WX    TMP DP  RH WIND       PRES   REMARKS
COLUMBUS       FAIR      72  70  93 CALM      30.12R
OSU AIRPORT    FAIR      70  70 100 CALM      30.12S
BOLTON FIELD   NOT AVBL
RICKENBACK AFB NOT AVBL
NEWARK         FAIR      69  68  96 CALM      30.13R
MARION         FAIR      69  67  93 CALM      30.14R FOG
LANCASTER      FAIR      70  69  97 CALM      30.13R FOG
ZANESVILLE     FAIR      70  69  97 CALM      30.13R FOG
NEW PHILLY     CLOUDY    71  68  90 CALM      30.13R FOG
$$




USA.gov is the U.S. government's official web portal to all federal, state and local government web resources and services.